User: anonymous   Login
Location: Unspecified
(0.0000°N, 0.0000°E)
Time: 00:13:58
(UTC+00:00)
Language:

WGS 6 (USA 244) - Orbit

View from above orbital plane
View from above orbital plane
View from above satellite
View from above satellite

Ground track
Ground track

The orbit is defined by the following mean orbital elements,

1 39222U          26138.55057713 +.00000000 +00000-0 +00000-0 0 00004
2 39222   0.0166 319.3291 0000313 286.6447  53.2763  1.00269037    09
Epoch (UTC): 18 May 2026 13:12:49
Eccentricity: 0.0000313
inclination: 0.0166°
perigee height: 35786 km
apogee height: 35789 km
right ascension of ascending node: 319.3291°
argument of perigee: 286.6447°
revolutions per day: 1.00269037
mean anomaly at epoch: 53.2763°

The dashed part of the orbit path shows where the satellite is in the earth's shadow,  

DLR